Weather History for Erzincan, Turkey

Change the Weather History Date:

Saturday, November 19, 2011

  Actual Average Record
Temperature  
Mean Temperature 40 °F -  
Max Temperature 49 °F 44 °F - ()
Min Temperature 30 °F 29 °F - ()
Degree Days  
Heating Degree Days 26    
Moisture  
Dew Point 33 °F    
Average Humidity 74    
Maximum Humidity 100    
Minimum Humidity 45    
Precipitation  
Precipitation 0.00 in 0.04 in - ()
Sea Level Pressure  
Sea Level Pressure 30.07 in    
Wind  
Wind Speed 3 mph ()    
Max Wind Speed 12 mph    
Max Gust Speed -    
Visibility 6.4 miles    
Events      
T = Trace of Precipitation, MM = Missing Value Source: Averaged Metar Reports

Daily Weather History Graph

Daily Weather History Graph

Search for Another Location

Airport:

Trip Planner

Search our weather history database for the weather conditions in past years. The results will help you decide how hot, cold, wet, or windy it might be!

Date:

Astronomy

Nov. 19, 2011 Rise Set
Actual Time 6:10 AM EET 4:03 PM EET
Civil Twilight 5:41 AM EET 4:32 PM EET
Nautical Twilight 5:08 AM EET 5:05 PM EET
Astronomical Twilight 4:36 AM EET 5:37 PM EET
Moon No Moon Rise 12:09 PM EET (11/19)
Length of Visible Light 10h 51m
Length of Day
9h 53m
Last Quarter, 41% of the Moon is Illuminated
Nov 19
Last Quarter
Nov 25
New
Dec 2
First Quarter
Dec 10
Full
Dec 18
Last Quarter

Hourly Weather History & Observations

Time (EET) Temp. Windchill Dew Point Humidity Pressure Visibility Wind Dir Wind Speed Gust Speed Precip Events Conditions
12:50 AM 37.4 °F - 35.6 °F 93% 30.09 in 6.2 mi Calm Calm - N/A   Mostly Cloudy
2:00 AM 35 °F - 34 °F 92%  in 12 mi West 3.5 mph - -   Partly Cloudy
3:50 AM 33.8 °F - 32.0 °F 93% 30.09 in 6.2 mi NNE 2.3 mph - N/A   Mostly Cloudy
4:50 AM 32.0 °F - 32.0 °F 100% 30.09 in 6.2 mi Calm Calm - N/A   Scattered Clouds
5:50 AM 33.8 °F - 32.0 °F 93% 30.09 in 6.2 mi Variable 1.2 mph - N/A   Scattered Clouds
6:50 AM 33.8 °F - 32.0 °F 93% 30.12 in 6.2 mi Variable 1.2 mph - N/A   Mostly Cloudy
7:50 AM 37.4 °F 34.9 °F 33.8 °F 87% 30.12 in 6.2 mi NE 3.5 mph - N/A   Mostly Cloudy
8:00 AM 38 °F - 34 °F 80%  in 6 mi NE 3.5 mph - -   Partly Cloudy
8:50 AM 41.0 °F 38.0 °F 35.6 °F 81% 30.12 in 6.2 mi SSE 4.6 mph - N/A   Mostly Cloudy
9:50 AM 44.6 °F 43.1 °F 33.8 °F 66% 30.12 in 6.2 mi ENE 3.5 mph - N/A   Mostly Cloudy
10:50 AM 46.4 °F 45.2 °F 32.0 °F 57% 30.09 in 6.2 mi SSE 3.5 mph - N/A   Mostly Cloudy
11:50 AM 46.4 °F 44.3 °F 32.0 °F 57% 30.06 in 6.2 mi SE 4.6 mph - N/A   Mostly Cloudy
12:50 PM 48.2 °F - 32.0 °F 54% 30.04 in 6.2 mi ESE 9.2 mph - N/A   Mostly Cloudy
1:50 PM 48.2 °F - 32.0 °F 54% 30.04 in 6.2 mi ESE 9.2 mph - N/A   Mostly Cloudy
2:00 PM 47 °F - 32 °F 45%  in 6 mi ESE 9.2 mph - -   Partly Cloudy
2:50 PM 46.4 °F 41.1 °F 32.0 °F 57% 30.04 in 6.2 mi ESE 11.5 mph - N/A   Mostly Cloudy
3:50 PM 44.6 °F 39.2 °F 32.0 °F 61% 30.04 in 6.2 mi East 10.4 mph - N/A   Mostly Cloudy
4:50 PM 42.8 °F 37.0 °F 32.0 °F 66% 30.04 in 6.2 mi ESE 10.4 mph - N/A   Mostly Cloudy
5:50 PM 42.8 °F 38.0 °F 32.0 °F 66% 30.06 in 6.2 mi ESE 8.1 mph - N/A   Mostly Cloudy
6:50 PM 41.0 °F - 32.0 °F 70% 30.06 in 6.2 mi Variable 1.2 mph - N/A   Mostly Cloudy
7:50 PM 41.0 °F 36.4 °F 32.0 °F 70% 30.06 in 6.2 mi SE 6.9 mph - N/A   Mostly Cloudy
8:00 PM 40 °F - 31 °F 62%  in 6 mi SE 6.9 mph - -   Partly Cloudy
8:50 PM 39.2 °F - 32.0 °F 75% 30.06 in 6.2 mi Calm Calm - N/A   Mostly Cloudy
10:50 PM 37.4 °F 33.8 °F 33.8 °F 87% 30.06 in 6.2 mi SSE 4.6 mph - N/A   Mostly Cloudy
11:50 PM 37.4 °F - 33.8 °F 87% 30.06 in 6.2 mi Variable 2.3 mph - N/A   Mostly Cloudy